Time,TemperatureF,DewpointF,PressureIn,WindDirection,WindDirectionDegrees,WindSpeedMPH,WindSpeedGustMPH,Humidity,HourlyPrecipIn,Conditions,Clouds,dailyrainin,SoftwareType,DateUTC
2013-05-02 00:04:00,36.7,27.1,30.39,North,0,24.0,27.0,68,0.00,,,0.00,meteohub,2013-05-02 05:04:00,
2013-05-02 00:09:00,36.5,27.0,30.40,NW,315,19.0,25.0,68,0.00,,,0.00,meteohub,2013-05-02 05:09:00,
2013-05-02 00:14:00,36.5,27.3,30.40,North,0,21.0,25.0,69,0.00,,,0.00,meteohub,2013-05-02 05:14:00,
2013-05-02 00:19:00,36.1,27.0,30.40,North,0,20.0,25.0,69,0.00,,,0.00,meteohub,2013-05-02 05:19:00,
2013-05-02 00:24:00,36.1,27.3,30.40,North,0,21.0,25.0,70,0.00,,,0.00,meteohub,2013-05-02 05:24:00,
2013-05-02 00:29:00,35.8,27.0,30.40,North,0,21.0,23.0,70,0.00,,,0.00,meteohub,2013-05-02 05:29:00,
2013-05-02 00:34:00,35.6,26.8,30.40,North,0,18.0,23.0,70,0.00,,,0.00,meteohub,2013-05-02 05:34:00,
2013-05-02 00:39:00,35.4,27.0,30.40,North,0,21.0,21.0,71,0.00,,,0.00,meteohub,2013-05-02 05:39:00,
2013-05-02 00:44:00,35.2,26.8,30.40,North,0,21.0,21.0,71,0.00,,,0.00,meteohub,2013-05-02 05:44:00,
2013-05-02 00:49:00,34.9,26.1,30.41,North,0,19.0,21.0,70,0.00,,,0.00,meteohub,2013-05-02 05:49:00,
2013-05-02 00:54:00,34.7,25.9,30.41,WNW,293,18.0,21.0,70,0.00,,,0.00,meteohub,2013-05-02 05:54:00,
2013-05-02 00:59:00,34.7,25.9,30.41,North,0,21.0,21.0,70,0.00,,,0.00,meteohub,2013-05-02 05:59:00,
2013-05-02 01:04:00,34.7,25.9,30.41,NE,45,21.0,22.0,70,0.00,,,0.00,meteohub,2013-05-02 06:04:00,
2013-05-02 01:10:00,34.5,25.7,30.41,North,0,20.0,23.0,70,0.00,,,0.00,meteohub,2013-05-02 06:10:00,
2013-05-02 01:15:00,34.5,25.7,30.40,North,0,18.0,23.0,70,0.00,,,0.00,meteohub,2013-05-02 06:15:00,
2013-05-02 01:20:00,34.5,25.7,30.41,North,0,22.0,22.0,70,0.00,,,0.00,meteohub,2013-05-02 06:20:00,
2013-05-02 01:25:00,34.7,25.9,30.40,North,0,23.0,23.0,70,0.00,,,0.00,meteohub,2013-05-02 06:25:00,
2013-05-02 01:30:00,34.7,26.2,30.40,North,0,21.0,23.0,71,0.00,,,0.00,meteohub,2013-05-02 06:30:00,
2013-05-02 01:35:00,34.9,26.4,30.41,North,0,18.0,23.0,71,0.00,,,0.00,meteohub,2013-05-02 06:35:00,
2013-05-02 01:40:00,34.7,26.2,30.41,North,0,21.0,23.0,71,0.00,,,0.00,meteohub,2013-05-02 06:40:00,
2013-05-02 01:45:00,34.7,26.2,30.41,North,0,18.0,21.0,71,0.00,,,0.00,meteohub,2013-05-02 06:45:00,
2013-05-02 01:50:00,34.7,26.2,30.42,North,0,21.0,22.0,71,0.00,,,0.00,meteohub,2013-05-02 06:50:00,
2013-05-02 01:55:00,34.7,26.2,30.41,North,0,20.0,22.0,71,0.00,,,0.00,meteohub,2013-05-02 06:55:00,
2013-05-02 02:00:00,34.5,26.1,30.41,North,0,21.0,22.0,71,0.00,,,0.00,meteohub,2013-05-02 07:00:00,
2013-05-02 02:05:00,34.5,26.1,30.42,North,0,20.0,22.0,71,0.00,,,0.00,meteohub,2013-05-02 07:05:00,
2013-05-02 02:10:00,34.3,25.9,30.42,NW,315,18.0,21.0,71,0.00,,,0.00,meteohub,2013-05-02 07:10:00,
2013-05-02 02:15:00,34.3,25.9,30.42,North,0,18.0,21.0,71,0.00,,,0.00,meteohub,2013-05-02 07:15:00,
2013-05-02 02:20:00,34.3,25.9,30.42,North,0,23.0,23.0,71,0.00,,,0.00,meteohub,2013-05-02 07:20:00,
2013-05-02 02:25:00,34.2,25.7,30.42,North,0,23.0,24.0,71,0.00,,,0.00,meteohub,2013-05-02 07:25:00,
2013-05-02 02:30:00,34.2,25.7,30.42,North,0,19.0,24.0,71,0.00,,,0.00,meteohub,2013-05-02 07:30:00,
2013-05-02 02:36:00,34.0,25.5,30.43,North,0,21.0,24.0,71,0.00,,,0.00,meteohub,2013-05-02 07:36:00,
2013-05-02 02:41:00,34.2,25.7,30.42,North,0,17.0,23.0,71,0.00,,,0.00,meteohub,2013-05-02 07:41:00,
2013-05-02 02:46:00,34.0,25.5,30.43,North,0,19.0,22.0,71,0.00,,,0.00,meteohub,2013-05-02 07:46:00,
2013-05-02 02:51:00,34.0,25.5,30.43,North,0,17.0,22.0,71,0.00,,,0.00,meteohub,2013-05-02 07:51:00,
2013-05-02 02:56:00,34.0,25.2,30.43,North,0,18.0,21.0,70,0.00,,,0.00,meteohub,2013-05-02 07:56:00,
2013-05-02 03:01:00,33.8,25.0,30.43,North,0,15.0,21.0,70,0.00,,,0.00,meteohub,2013-05-02 08:01:00,
2013-05-02 03:06:00,33.6,25.2,30.42,North,0,17.0,19.0,71,0.00,,,0.00,meteohub,2013-05-02 08:06:00,
2013-05-02 03:11:00,33.4,25.0,30.42,North,0,15.0,19.0,71,0.00,,,0.00,meteohub,2013-05-02 08:11:00,
2013-05-02 03:16:00,33.3,24.8,30.43,North,0,15.0,19.0,71,0.00,,,0.00,meteohub,2013-05-02 08:16:00,
2013-05-02 03:21:00,33.3,24.6,30.43,NNE,23,18.0,18.0,70,0.00,,,0.00,meteohub,2013-05-02 08:21:00,
2013-05-02 03:26:00,33.3,24.6,30.43,North,0,15.0,18.0,70,0.00,,,0.00,meteohub,2013-05-02 08:26:00,
2013-05-02 03:31:00,33.3,24.6,30.42,North,0,18.0,18.0,70,0.00,,,0.00,meteohub,2013-05-02 08:31:00,
2013-05-02 03:36:00,33.3,24.6,30.42,North,0,12.0,18.0,70,0.00,,,0.00,meteohub,2013-05-02 08:36:00,
2013-05-02 03:41:00,33.3,24.6,30.42,NNE,23,17.0,18.0,70,0.00,,,0.00,meteohub,2013-05-02 08:41:00,
2013-05-02 03:46:00,33.3,24.6,30.42,NE,45,13.0,18.0,70,0.00,,,0.00,meteohub,2013-05-02 08:46:00,
2013-05-02 03:51:00,33.4,24.8,30.43,North,0,15.0,17.0,70,0.00,,,0.00,meteohub,2013-05-02 08:51:00,
2013-05-02 03:57:00,33.4,24.8,30.43,North,0,15.0,19.0,70,0.00,,,0.00,meteohub,2013-05-02 08:57:00,
2013-05-02 04:02:00,33.4,24.8,30.43,North,0,14.0,19.0,70,0.00,,,0.00,meteohub,2013-05-02 09:02:00,
2013-05-02 04:07:00,33.4,24.8,30.42,North,0,15.0,18.0,70,0.00,,,0.00,meteohub,2013-05-02 09:07:00,
2013-05-02 04:12:00,33.4,24.8,30.42,North,0,14.0,18.0,70,0.00,,,0.00,meteohub,2013-05-02 09:12:00,
2013-05-02 04:17:00,33.4,24.8,30.43,North,0,13.0,17.0,70,0.00,,,0.00,meteohub,2013-05-02 09:17:00,
2013-05-02 04:22:00,33.4,24.8,30.43,North,0,13.0,17.0,70,0.00,,,0.00,meteohub,2013-05-02 09:22:00,
2013-05-02 04:27:00,33.4,24.4,30.43,NNE,23,15.0,17.0,69,0.00,,,0.00,meteohub,2013-05-02 09:27:00,
2013-05-02 04:32:00,33.4,24.4,30.43,North,0,16.0,17.0,69,0.00,,,0.00,meteohub,2013-05-02 09:32:00,
2013-05-02 04:37:00,33.4,24.4,30.42,North,0,14.0,17.0,69,0.00,,,0.00,meteohub,2013-05-02 09:37:00,
2013-05-02 04:42:00,33.3,23.9,30.43,North,0,14.0,17.0,68,0.00,,,0.00,meteohub,2013-05-02 09:42:00,
2013-05-02 04:47:00,33.3,23.9,30.42,North,0,14.0,17.0,68,0.00,,,0.00,meteohub,2013-05-02 09:47:00,
2013-05-02 04:52:00,33.3,23.9,30.42,North,0,14.0,17.0,68,0.00,,,0.00,meteohub,2013-05-02 09:52:00,
2013-05-02 04:57:00,33.3,23.5,30.42,North,0,14.0,17.0,67,0.00,,,0.00,meteohub,2013-05-02 09:57:00,
2013-05-02 05:02:00,33.3,23.5,30.43,North,0,14.0,17.0,67,0.00,,,0.00,meteohub,2013-05-02 10:02:00,
2013-05-02 05:08:00,33.3,23.2,30.42,North,0,15.0,17.0,66,0.00,,,0.00,meteohub,2013-05-02 10:08:00,
2013-05-02 05:13:00,33.4,23.4,30.42,North,0,15.0,17.0,66,0.00,,,0.00,meteohub,2013-05-02 10:13:00,
2013-05-02 05:18:00,33.4,23.4,30.42,NNW,338,17.0,17.0,66,0.00,,,0.00,meteohub,2013-05-02 10:18:00,
2013-05-02 05:23:00,33.4,23.0,30.42,North,0,16.0,19.0,65,0.00,,,0.00,meteohub,2013-05-02 10:23:00,
2013-05-02 05:28:00,33.3,22.8,30.43,North,0,15.0,19.0,65,0.00,,,0.00,meteohub,2013-05-02 10:28:00,
2013-05-02 05:33:00,33.3,22.8,30.43,North,0,15.0,18.0,65,0.00,,,0.00,meteohub,2013-05-02 10:33:00,
2013-05-02 05:38:00,33.3,22.8,30.43,North,0,15.0,17.0,65,0.00,,,0.00,meteohub,2013-05-02 10:38:00,
2013-05-02 05:43:00,33.4,23.7,30.43,North,0,14.0,17.0,67,0.00,,,0.00,meteohub,2013-05-02 10:43:00,
2013-05-02 05:48:00,33.4,24.4,30.44,North,0,15.0,16.0,69,0.00,,,0.00,meteohub,2013-05-02 10:48:00,
2013-05-02 05:53:00,33.4,24.4,30.44,NNW,338,15.0,16.0,69,0.00,,,0.00,meteohub,2013-05-02 10:53:00,
2013-05-02 05:58:00,33.4,24.8,30.45,North,0,15.0,16.0,70,0.00,,,0.00,meteohub,2013-05-02 10:58:00,
2013-05-02 06:03:00,33.4,24.4,30.45,North,0,14.0,16.0,69,0.00,,,0.00,meteohub,2013-05-02 11:03:00,
2013-05-02 06:08:00,33.4,24.8,30.44,North,0,15.0,15.0,70,0.00,,,0.00,meteohub,2013-05-02 11:08:00,
2013-05-02 06:13:00,33.3,24.6,30.44,North,0,13.0,15.0,70,0.00,,,0.00,meteohub,2013-05-02 11:13:00,
2013-05-02 06:18:00,33.3,24.6,30.44,North,0,14.0,15.0,70,0.00,,,0.00,meteohub,2013-05-02 11:18:00,
2013-05-02 06:23:00,33.1,24.4,30.45,WNW,293,13.0,15.0,70,0.00,,,0.00,meteohub,2013-05-02 11:23:00,
2013-05-02 06:29:00,33.1,24.4,30.45,North,0,13.0,15.0,70,0.00,,,0.00,meteohub,2013-05-02 11:29:00,
2013-05-02 06:34:00,33.1,24.4,30.45,NW,315,14.0,15.0,70,0.00,,,0.00,meteohub,2013-05-02 11:34:00,
2013-05-02 06:39:00,33.1,24.4,30.45,NW,315,16.0,16.0,70,0.00,,,0.00,meteohub,2013-05-02 11:39:00,
2013-05-02 06:44:00,32.9,24.3,30.45,North,0,15.0,16.0,70,0.00,,,0.00,meteohub,2013-05-02 11:44:00,
2013-05-02 06:49:00,32.9,24.6,30.45,NW,315,13.0,16.0,71,0.00,,,0.00,meteohub,2013-05-02 11:49:00,
2013-05-02 06:54:00,33.1,24.6,30.45,NW,315,14.0,16.0,71,0.00,,,0.00,meteohub,2013-05-02 11:54:00,
2013-05-02 06:59:00,33.1,24.6,30.46,North,0,15.0,16.0,71,0.00,,,0.00,meteohub,2013-05-02 11:59:00,
2013-05-02 07:04:00,33.1,24.6,30.46,North,0,15.0,16.0,71,0.00,,,0.00,meteohub,2013-05-02 12:04:00,
2013-05-02 07:09:00,33.1,24.6,30.45,North,0,17.0,17.0,71,0.00,,,0.00,meteohub,2013-05-02 12:09:00,
2013-05-02 07:14:00,33.3,24.8,30.46,North,0,17.0,17.0,71,0.00,,,0.00,meteohub,2013-05-02 12:14:00,
2013-05-02 07:19:00,33.4,25.0,30.45,North,0,17.0,17.0,71,0.00,,,0.00,meteohub,2013-05-02 12:19:00,
2013-05-02 07:24:00,33.4,24.8,30.45,North,0,15.0,17.0,70,0.00,,,0.00,meteohub,2013-05-02 12:24:00,
2013-05-02 07:29:00,33.4,24.8,30.46,North,0,18.0,19.0,70,0.00,,,0.00,meteohub,2013-05-02 12:29:00,
2013-05-02 07:35:00,33.3,24.6,30.45,NW,315,17.0,19.0,70,0.00,,,0.00,meteohub,2013-05-02 12:35:00,
2013-05-02 07:40:00,32.9,24.6,30.46,North,0,18.0,18.0,71,0.00,,,0.00,meteohub,2013-05-02 12:40:00,
2013-05-02 07:45:00,32.9,24.6,30.46,North,0,19.0,20.0,71,0.00,,,0.00,meteohub,2013-05-02 12:45:00,
2013-05-02 07:50:00,33.1,25.0,30.46,WNW,293,16.0,20.0,72,0.00,,,0.00,meteohub,2013-05-02 12:50:00,
2013-05-02 07:55:00,33.3,25.2,30.46,NW,315,16.0,20.0,72,0.00,,,0.00,meteohub,2013-05-02 12:55:00,
2013-05-02 08:00:00,33.3,25.2,30.47,WNW,293,19.0,21.0,72,0.00,,,0.00,meteohub,2013-05-02 13:00:00,
2013-05-02 08:05:00,33.4,25.3,30.46,WNW,293,20.0,21.0,72,0.00,,,0.00,meteohub,2013-05-02 13:05:00,
2013-05-02 08:10:00,33.6,25.2,30.46,North,0,19.0,21.0,71,0.00,,,0.00,meteohub,2013-05-02 13:10:00,
2013-05-02 08:15:00,33.6,25.2,30.46,NW,315,20.0,23.0,71,0.00,,,0.00,meteohub,2013-05-02 13:15:00,
2013-05-02 08:20:00,34.0,24.8,30.46,North,0,21.0,23.0,69,0.00,,,0.00,meteohub,2013-05-02 13:20:00,
2013-05-02 08:26:00,34.2,25.0,30.46,NW,315,23.0,23.0,69,0.00,,,0.00,meteohub,2013-05-02 13:26:00,
2013-05-02 08:31:00,34.3,24.8,30.46,NW,315,22.0,24.0,68,0.00,,,0.00,meteohub,2013-05-02 13:31:00,
2013-05-02 08:36:00,34.7,24.8,30.46,NNW,338,18.0,24.0,67,0.00,,,0.00,meteohub,2013-05-02 13:36:00,
2013-05-02 08:41:00,34.9,25.0,30.46,North,0,22.0,24.0,67,0.00,,,0.00,meteohub,2013-05-02 13:41:00,
2013-05-02 08:46:00,35.2,25.0,30.46,NW,315,27.0,27.0,66,0.00,,,0.00,meteohub,2013-05-02 13:46:00,
2013-05-02 08:51:00,35.6,24.3,30.46,NW,315,24.0,27.0,63,0.00,,,0.00,meteohub,2013-05-02 13:51:00,
2013-05-02 08:56:00,35.8,24.4,30.47,North,0,27.0,27.0,63,0.00,,,0.00,meteohub,2013-05-02 13:56:00,
2013-05-02 09:01:00,36.1,24.4,30.46,North,0,26.0,27.0,62,0.00,,,0.00,meteohub,2013-05-02 14:01:00,
2013-05-02 09:06:00,36.3,24.1,30.47,NW,315,25.0,27.0,61,0.00,,,0.00,meteohub,2013-05-02 14:06:00,
2013-05-02 09:11:00,36.3,23.7,30.47,North,0,28.0,30.0,60,0.00,,,0.00,meteohub,2013-05-02 14:11:00,
2013-05-02 09:16:00,36.3,23.7,30.47,North,0,23.0,30.0,60,0.00,,,0.00,meteohub,2013-05-02 14:16:00,
2013-05-02 09:22:00,36.7,23.7,30.47,North,0,26.0,30.0,59,0.00,,,0.00,meteohub,2013-05-02 14:22:00,
2013-05-02 09:27:00,36.9,23.9,30.47,North,0,29.0,30.0,59,0.00,,,0.00,meteohub,2013-05-02 14:27:00,
2013-05-02 09:32:00,37.2,24.3,30.47,North,0,29.0,31.0,59,0.00,,,0.00,meteohub,2013-05-02 14:32:00,
2013-05-02 09:37:00,37.6,25.7,30.47,North,0,30.0,31.0,62,0.00,,,0.00,meteohub,2013-05-02 14:37:00,
2013-05-02 09:42:00,38.1,26.2,30.47,North,0,27.0,33.0,62,0.00,,,0.00,meteohub,2013-05-02 14:42:00,
2013-05-02 09:47:00,38.1,25.5,30.47,WNW,293,26.0,33.0,60,0.00,,,0.00,meteohub,2013-05-02 14:47:00,
2013-05-02 09:52:00,38.3,25.2,30.46,North,0,27.0,33.0,59,0.00,,,0.00,meteohub,2013-05-02 14:52:00,
2013-05-02 09:58:00,38.7,25.2,30.46,North,0,30.0,34.0,58,0.00,,,0.00,meteohub,2013-05-02 14:58:00,
2013-05-02 10:03:00,39.0,25.5,30.46,WNW,293,33.0,34.0,58,0.00,,,0.00,meteohub,2013-05-02 15:03:00,
2013-05-02 10:08:00,39.4,24.6,30.47,North,0,32.0,34.0,55,0.00,,,0.00,meteohub,2013-05-02 15:08:00,
2013-05-02 10:13:00,39.9,25.0,30.46,North,0,28.0,34.0,55,0.00,,,0.00,meteohub,2013-05-02 15:13:00,
2013-05-02 10:18:00,40.3,25.0,30.46,North,0,30.0,34.0,54,0.00,,,0.00,meteohub,2013-05-02 15:18:00,
2013-05-02 10:23:00,40.6,24.8,30.46,WSW,248,30.0,34.0,53,0.00,,,0.00,meteohub,2013-05-02 15:23:00,
2013-05-02 10:29:00,41.0,24.8,30.46,North,0,30.0,35.0,52,0.00,,,0.00,meteohub,2013-05-02 15:29:00,
2013-05-02 10:34:00,41.2,24.8,30.46,North,0,26.0,35.0,52,0.00,,,0.00,meteohub,2013-05-02 15:34:00,
2013-05-02 10:39:00,41.4,25.0,30.46,NW,315,29.0,35.0,52,0.00,,,0.00,meteohub,2013-05-02 15:39:00,
2013-05-02 10:44:00,41.0,24.3,30.46,NW,315,30.0,34.0,51,0.00,,,0.00,meteohub,2013-05-02 15:44:00,
2013-05-02 10:49:00,41.5,24.8,30.45,North,0,32.0,32.0,51,0.00,,,0.00,meteohub,2013-05-02 15:49:00,
2013-05-02 10:54:00,41.4,24.6,30.45,NW,315,33.0,33.0,51,0.00,,,0.00,meteohub,2013-05-02 15:54:00,
2013-05-02 10:59:00,42.1,25.3,30.45,NW,315,39.0,39.0,51,0.00,,,0.00,meteohub,2013-05-02 15:59:00,
2013-05-02 11:05:00,41.9,24.6,30.45,North,0,40.0,40.0,50,0.00,,,0.00,meteohub,2013-05-02 16:05:00,
2013-05-02 11:10:00,41.7,23.5,30.44,North,0,34.0,43.0,48,0.00,,,0.00,meteohub,2013-05-02 16:10:00,
2013-05-02 11:15:00,41.9,22.6,30.44,North,0,41.0,43.0,46,0.00,,,0.00,meteohub,2013-05-02 16:15:00,
2013-05-02 11:20:00,42.1,23.4,30.44,North,0,30.0,41.0,47,0.00,,,0.00,meteohub,2013-05-02 16:20:00,
2013-05-02 11:25:00,42.3,23.9,30.44,North,0,36.0,41.0,48,0.00,,,0.00,meteohub,2013-05-02 16:25:00,
2013-05-02 11:30:00,42.1,22.3,30.45,NW,315,35.0,42.0,45,0.00,,,0.00,meteohub,2013-05-02 16:30:00,
2013-05-02 11:35:00,42.1,23.4,30.45,North,0,35.0,42.0,47,0.00,,,0.00,meteohub,2013-05-02 16:35:00,
2013-05-02 11:40:00,42.3,23.5,30.44,North,0,36.0,42.0,47,0.00,,,0.00,meteohub,2013-05-02 16:40:00,
2013-05-02 11:45:00,42.4,22.6,30.44,NW,315,36.0,40.0,45,0.00,,,0.00,meteohub,2013-05-02 16:45:00,
2013-05-02 11:51:00,43.0,23.2,30.44,NNW,338,34.0,40.0,45,0.00,,,0.00,meteohub,2013-05-02 16:51:00,
2013-05-02 11:56:00,43.2,23.7,30.44,North,0,30.0,40.0,46,0.00,,,0.00,meteohub,2013-05-02 16:56:00,
2013-05-02 12:01:00,43.3,23.9,30.44,WNW,293,34.0,40.0,46,0.00,,,0.00,meteohub,2013-05-02 17:01:00,
2013-05-02 12:06:00,43.0,23.5,30.44,NNW,338,30.0,38.0,46,0.00,,,0.00,meteohub,2013-05-02 17:06:00,
2013-05-02 12:11:00,43.0,23.5,30.44,North,0,29.0,36.0,46,0.00,,,0.00,meteohub,2013-05-02 17:11:00,
2013-05-02 12:16:00,42.8,23.9,30.44,NW,315,33.0,36.0,47,0.00,,,0.00,meteohub,2013-05-02 17:16:00,
2013-05-02 12:21:00,42.4,24.6,30.44,North,0,28.0,37.0,49,0.00,,,0.00,meteohub,2013-05-02 17:21:00,
2013-05-02 12:26:00,42.6,25.3,30.43,NW,315,34.0,37.0,50,0.00,,,0.00,meteohub,2013-05-02 17:26:00,
2013-05-02 12:32:00,42.4,25.2,30.43,North,0,34.0,37.0,50,0.00,,,0.00,meteohub,2013-05-02 17:32:00,
2013-05-02 12:37:00,42.6,24.8,30.42,North,0,36.0,36.0,49,0.00,,,0.00,meteohub,2013-05-02 17:37:00,
2013-05-02 12:42:00,43.0,24.1,30.42,North,0,27.0,40.0,47,0.00,,,0.00,meteohub,2013-05-02 17:42:00,
2013-05-02 12:47:00,43.2,24.3,30.42,NW,315,38.0,40.0,47,0.00,,,0.00,meteohub,2013-05-02 17:47:00,
2013-05-02 12:52:00,43.0,24.6,30.42,North,0,30.0,40.0,48,0.00,,,0.00,meteohub,2013-05-02 17:52:00,
2013-05-02 12:57:00,44.2,26.2,30.42,North,0,32.0,39.0,49,0.00,,,0.00,meteohub,2013-05-02 17:57:00,
2013-05-02 13:02:00,44.2,25.3,30.41,North,0,35.0,39.0,47,0.00,,,0.00,meteohub,2013-05-02 18:02:00,
2013-05-02 13:07:00,43.7,24.8,30.41,North,0,33.0,35.0,47,0.00,,,0.00,meteohub,2013-05-02 18:07:00,
2013-05-02 13:13:00,43.9,25.0,30.41,North,0,32.0,41.0,47,0.00,,,0.00,meteohub,2013-05-02 18:13:00,
2013-05-02 13:18:00,43.7,23.7,30.41,NW,315,40.0,41.0,45,0.00,,,0.00,meteohub,2013-05-02 18:18:00,
2013-05-02 13:23:00,44.1,24.6,30.40,North,0,28.0,41.0,46,0.00,,,0.00,meteohub,2013-05-02 18:23:00,
2013-05-02 13:28:00,44.2,24.8,30.40,WNW,293,31.0,40.0,46,0.00,,,0.00,meteohub,2013-05-02 18:28:00,
2013-05-02 13:33:00,44.6,24.6,30.40,North,0,37.0,40.0,45,0.00,,,0.00,meteohub,2013-05-02 18:33:00,
2013-05-02 13:38:00,43.9,23.9,30.40,NW,315,25.0,40.0,45,0.00,,,0.00,meteohub,2013-05-02 18:38:00,
2013-05-02 13:44:00,43.9,24.4,30.40,North,0,36.0,40.0,46,0.00,,,0.00,meteohub,2013-05-02 18:44:00,
2013-05-02 13:49:00,43.7,24.3,30.40,NW,315,25.0,37.0,46,0.00,,,0.00,meteohub,2013-05-02 18:49:00,
2013-05-02 13:54:00,44.2,24.3,30.39,North,0,36.0,37.0,45,0.00,,,0.00,meteohub,2013-05-02 18:54:00,
2013-05-02 13:59:00,44.6,24.1,30.39,NNW,338,33.0,37.0,44,0.00,,,0.00,meteohub,2013-05-02 18:59:00,
2013-05-02 14:04:00,44.6,23.5,30.39,North,0,31.0,37.0,43,0.00,,,0.00,meteohub,2013-05-02 19:04:00,
2013-05-02 14:09:00,44.6,23.5,30.39,NW,315,30.0,36.0,43,0.00,,,0.00,meteohub,2013-05-02 19:09:00,
2013-05-02 14:15:00,45.3,24.1,30.39,North,0,35.0,35.0,43,0.00,,,0.00,meteohub,2013-05-02 19:15:00,
2013-05-02 14:20:00,45.7,23.9,30.38,North,0,32.0,38.0,42,0.00,,,0.00,meteohub,2013-05-02 19:20:00,
2013-05-02 14:25:00,45.7,23.9,30.39,NNW,338,27.0,38.0,42,0.00,,,0.00,meteohub,2013-05-02 19:25:00,
2013-05-02 14:30:00,45.7,23.4,30.38,North,0,30.0,36.0,41,0.00,,,0.00,meteohub,2013-05-02 19:30:00,
2013-05-02 14:35:00,46.2,23.9,30.38,North,0,34.0,34.0,41,0.00,,,0.00,meteohub,2013-05-02 19:35:00,
2013-05-02 14:41:00,45.9,23.5,30.38,North,0,29.0,34.0,41,0.00,,,0.00,meteohub,2013-05-02 19:41:00,
2013-05-02 14:46:00,45.9,23.5,30.38,North,0,30.0,34.0,41,0.00,,,0.00,meteohub,2013-05-02 19:46:00,
2013-05-02 14:51:00,45.9,22.8,30.38,NW,315,29.0,34.0,40,0.00,,,0.00,meteohub,2013-05-02 19:51:00,
2013-05-02 14:56:00,46.6,25.3,30.38,North,0,28.0,34.0,43,0.00,,,0.00,meteohub,2013-05-02 19:56:00,
2013-05-02 15:01:00,46.6,24.8,30.38,North,0,31.0,34.0,42,0.00,,,0.00,meteohub,2013-05-02 20:01:00,
2013-05-02 15:06:00,46.9,25.0,30.37,NW,315,34.0,34.0,42,0.00,,,0.00,meteohub,2013-05-02 20:06:00,
2013-05-02 15:12:00,46.9,24.4,30.37,North,0,29.0,36.0,41,0.00,,,0.00,meteohub,2013-05-02 20:12:00,
2013-05-02 15:17:00,46.8,24.8,30.37,North,0,34.0,36.0,42,0.00,,,0.00,meteohub,2013-05-02 20:17:00,
2013-05-02 15:22:00,46.8,24.8,30.37,North,0,24.0,34.0,42,0.00,,,0.00,meteohub,2013-05-02 20:22:00,
2013-05-02 15:27:00,47.1,25.2,30.37,North,0,32.0,34.0,42,0.00,,,0.00,meteohub,2013-05-02 20:27:00,
2013-05-02 15:32:00,46.9,24.4,30.37,North,0,22.0,34.0,41,0.00,,,0.00,meteohub,2013-05-02 20:32:00,
2013-05-02 15:37:00,47.1,25.2,30.37,NW,315,29.0,34.0,42,0.00,,,0.00,meteohub,2013-05-02 20:37:00,
2013-05-02 15:42:00,47.7,25.2,30.37,North,0,27.0,34.0,41,0.00,,,0.00,meteohub,2013-05-02 20:42:00,
2013-05-02 15:47:00,47.7,24.4,30.36,North,0,24.0,34.0,40,0.00,,,0.00,meteohub,2013-05-02 20:47:00,
2013-05-02 15:52:00,47.3,24.8,30.36,North,0,33.0,33.0,41,0.00,,,0.00,meteohub,2013-05-02 20:52:00,
2013-05-02 15:57:00,46.9,23.9,30.36,NW,315,30.0,34.0,40,0.00,,,0.00,meteohub,2013-05-02 20:57:00,
2013-05-02 16:02:00,47.3,24.3,30.36,North,0,30.0,34.0,40,0.00,,,0.00,meteohub,2013-05-02 21:02:00,
2013-05-02 16:07:00,47.1,24.6,30.36,North,0,29.0,35.0,41,0.00,,,0.00,meteohub,2013-05-02 21:07:00,
2013-05-02 16:13:00,47.1,24.1,30.36,North,0,32.0,35.0,40,0.00,,,0.00,meteohub,2013-05-02 21:13:00,
2013-05-02 16:18:00,47.3,24.3,30.36,North,0,28.0,34.0,40,0.00,,,0.00,meteohub,2013-05-02 21:18:00,
2013-05-02 16:23:00,47.8,25.9,30.35,North,0,27.0,34.0,42,0.00,,,0.00,meteohub,2013-05-02 21:23:00,
2013-05-02 16:28:00,47.3,23.5,30.36,North,0,26.0,32.0,39,0.00,,,0.00,meteohub,2013-05-02 21:28:00,
2013-05-02 16:33:00,47.3,23.5,30.35,North,0,24.0,32.0,39,0.00,,,0.00,meteohub,2013-05-02 21:33:00,
2013-05-02 16:38:00,47.3,24.8,30.35,North,0,26.0,29.0,41,0.00,,,0.00,meteohub,2013-05-02 21:38:00,
2013-05-02 16:43:00,46.9,22.6,30.35,North,0,28.0,35.0,38,0.00,,,0.00,meteohub,2013-05-02 21:43:00,
2013-05-02 16:48:00,47.1,23.4,30.35,North,0,30.0,35.0,39,0.00,,,0.00,meteohub,2013-05-02 21:48:00,
2013-05-02 16:53:00,47.5,25.0,30.34,North,0,27.0,35.0,41,0.00,,,0.00,meteohub,2013-05-02 21:53:00,
2013-05-02 16:58:00,47.3,22.3,30.35,North,0,27.0,30.0,37,0.00,,,0.00,meteohub,2013-05-02 21:58:00,
2013-05-02 17:03:00,47.7,24.4,30.34,North,0,30.0,31.0,40,0.00,,,0.00,meteohub,2013-05-02 22:03:00,
2013-05-02 17:08:00,46.8,23.7,30.34,North,0,32.0,32.0,40,0.00,,,0.00,meteohub,2013-05-02 22:08:00,
2013-05-02 17:14:00,46.6,22.3,30.34,North,0,26.0,31.0,38,0.00,,,0.00,meteohub,2013-05-02 22:14:00,
2013-05-02 17:19:00,46.8,23.7,30.34,North,0,30.0,32.0,40,0.00,,,0.00,meteohub,2013-05-02 22:19:00,
2013-05-02 17:24:00,46.8,23.2,30.34,North,0,28.0,32.0,39,0.00,,,0.00,meteohub,2013-05-02 22:24:00,
2013-05-02 17:29:00,46.6,23.0,30.34,North,0,29.0,31.0,39,0.00,,,0.00,meteohub,2013-05-02 22:29:00,
2013-05-02 17:34:00,47.1,24.1,30.34,North,0,30.0,31.0,40,0.00,,,0.00,meteohub,2013-05-02 22:34:00,
2013-05-02 17:39:00,46.8,24.8,30.35,NW,315,27.0,31.0,42,0.00,,,0.00,meteohub,2013-05-02 22:39:00,
2013-05-02 17:44:00,46.9,25.0,30.35,NW,315,28.0,31.0,42,0.00,,,0.00,meteohub,2013-05-02 22:44:00,
2013-05-02 17:49:00,46.8,24.8,30.34,North,0,25.0,32.0,42,0.00,,,0.00,meteohub,2013-05-02 22:49:00,
2013-05-02 17:54:00,47.1,25.2,30.34,North,0,30.0,32.0,42,0.00,,,0.00,meteohub,2013-05-02 22:54:00,
2013-05-02 17:59:00,46.6,24.8,30.34,North,0,22.0,32.0,42,0.00,,,0.00,meteohub,2013-05-02 22:59:00,
2013-05-02 18:04:00,46.8,25.5,30.34,North,0,27.0,30.0,43,0.00,,,0.00,meteohub,2013-05-02 23:04:00,
2013-05-02 18:09:00,46.2,23.9,30.34,North,0,27.0,30.0,41,0.00,,,0.00,meteohub,2013-05-02 23:09:00,
2013-05-02 18:14:00,46.4,25.2,30.34,WNW,293,27.0,27.0,43,0.00,,,0.00,meteohub,2013-05-02 23:14:00,
2013-05-02 18:19:00,46.8,25.5,30.34,North,0,27.0,34.0,43,0.00,,,0.00,meteohub,2013-05-02 23:19:00,
2013-05-02 18:25:00,46.2,23.9,30.34,North,0,29.0,34.0,41,0.00,,,0.00,meteohub,2013-05-02 23:25:00,
2013-05-02 18:30:00,45.9,23.5,30.34,North,0,20.0,34.0,41,0.00,,,0.00,meteohub,2013-05-02 23:30:00,
2013-05-02 18:35:00,45.7,23.9,30.34,North,0,24.0,29.0,42,0.00,,,0.00,meteohub,2013-05-02 23:35:00,
2013-05-02 18:40:00,45.9,23.5,30.34,North,0,17.0,29.0,41,0.00,,,0.00,meteohub,2013-05-02 23:40:00,
2013-05-02 18:45:00,45.9,24.1,30.34,North,0,23.0,33.0,42,0.00,,,0.00,meteohub,2013-05-02 23:45:00,
2013-05-02 18:50:00,46.0,24.3,30.34,NW,315,23.0,33.0,42,0.00,,,0.00,meteohub,2013-05-02 23:50:00,
2013-05-02 18:55:00,46.2,25.0,30.34,North,0,20.0,33.0,43,0.00,,,0.00,meteohub,2013-05-02 23:55:00,
2013-05-02 19:00:00,46.0,24.8,30.34,North,0,25.0,26.0,43,0.00,,,0.00,meteohub,2013-05-03 00:00:00,
2013-05-02 19:05:00,45.7,23.9,30.34,North,0,23.0,26.0,42,0.00,,,0.00,meteohub,2013-05-03 00:05:00,
2013-05-02 19:10:00,45.3,24.1,30.33,North,0,15.0,26.0,43,0.00,,,0.00,meteohub,2013-05-03 00:10:00,
2013-05-02 19:15:00,45.5,24.8,30.33,North,0,22.0,26.0,44,0.00,,,0.00,meteohub,2013-05-03 00:15:00,
2013-05-02 19:20:00,45.7,25.5,30.34,North,0,21.0,26.0,45,0.00,,,0.00,meteohub,2013-05-03 00:20:00,
2013-05-02 19:25:00,45.3,25.2,30.33,North,0,24.0,25.0,45,0.00,,,0.00,meteohub,2013-05-03 00:25:00,
2013-05-02 19:30:00,45.3,24.6,30.33,North,0,22.0,26.0,44,0.00,,,0.00,meteohub,2013-05-03 00:30:00,
2013-05-02 19:35:00,45.0,25.3,30.34,North,0,23.0,26.0,46,0.00,,,0.00,meteohub,2013-05-03 00:35:00,
2013-05-02 19:40:00,45.0,25.9,30.34,NW,315,24.0,26.0,47,0.00,,,0.00,meteohub,2013-05-03 00:40:00,
2013-05-02 19:45:00,44.8,25.3,30.34,North,0,25.0,25.0,46,0.00,,,0.00,meteohub,2013-05-03 00:45:00,
2013-05-02 19:51:00,44.6,25.7,30.33,WNW,293,21.0,27.0,47,0.00,,,0.00,meteohub,2013-05-03 00:51:00,
2013-05-02 19:56:00,44.2,25.7,30.33,North,0,23.0,27.0,48,0.00,,,0.00,meteohub,2013-05-03 00:56:00,
2013-05-02 20:01:00,44.1,26.1,30.33,North,0,21.0,25.0,49,0.00,,,0.00,meteohub,2013-05-03 01:01:00,
2013-05-02 20:06:00,43.7,25.7,30.33,North,0,20.0,24.0,49,0.00,,,0.00,meteohub,2013-05-03 01:06:00,
2013-05-02 20:11:00,43.3,25.5,30.33,North,0,21.0,24.0,49,0.00,,,0.00,meteohub,2013-05-03 01:11:00,
2013-05-02 20:16:00,43.0,25.2,30.33,North,0,22.0,24.0,49,0.00,,,0.00,meteohub,2013-05-03 01:16:00,
2013-05-02 20:21:00,42.3,25.9,30.33,North,0,18.0,23.0,52,0.00,,,0.00,meteohub,2013-05-03 01:21:00,
2013-05-02 20:26:00,41.7,25.3,30.34,North,0,21.0,23.0,52,0.00,,,0.00,meteohub,2013-05-03 01:26:00,
2013-05-02 20:31:00,41.5,25.2,30.34,North,0,17.0,23.0,52,0.00,,,0.00,meteohub,2013-05-03 01:31:00,
2013-05-02 20:36:00,41.4,25.0,30.33,North,0,21.0,23.0,52,0.00,,,0.00,meteohub,2013-05-03 01:36:00,
2013-05-02 20:41:00,41.0,25.2,30.33,North,0,23.0,23.0,53,0.00,,,0.00,meteohub,2013-05-03 01:41:00,
2013-05-02 20:46:00,41.0,25.2,30.33,North,0,19.0,23.0,53,0.00,,,0.00,meteohub,2013-05-03 01:46:00,
2013-05-02 20:51:00,40.6,25.7,30.33,WNW,293,18.0,23.0,55,0.00,,,0.00,meteohub,2013-05-03 01:51:00,
2013-05-02 20:56:00,40.5,25.5,30.33,WNW,293,15.0,23.0,55,0.00,,,0.00,meteohub,2013-05-03 01:56:00,
2013-05-02 21:01:00,40.3,25.9,30.33,NW,315,17.0,22.0,56,0.00,,,0.00,meteohub,2013-05-03 02:01:00,
2013-05-02 21:06:00,39.9,25.5,30.33,North,0,17.0,22.0,56,0.00,,,0.00,meteohub,2013-05-03 02:06:00,
2013-05-02 21:12:00,39.7,25.7,30.34,North,0,19.0,21.0,57,0.00,,,0.00,meteohub,2013-05-03 02:12:00,
2013-05-02 21:17:00,39.6,25.5,30.34,North,0,16.0,21.0,57,0.00,,,0.00,meteohub,2013-05-03 02:17:00,
2013-05-02 21:22:00,39.2,25.7,30.34,NW,315,17.0,21.0,58,0.00,,,0.00,meteohub,2013-05-03 02:22:00,
2013-05-02 21:27:00,39.0,25.9,30.34,North,0,16.0,21.0,59,0.00,,,0.00,meteohub,2013-05-03 02:27:00,
2013-05-02 21:32:00,38.7,26.1,30.34,NW,315,16.0,19.0,60,0.00,,,0.00,meteohub,2013-05-03 02:32:00,
2013-05-02 21:37:00,38.3,26.4,30.34,WNW,293,15.0,19.0,62,0.00,,,0.00,meteohub,2013-05-03 02:37:00,
2013-05-02 21:42:00,38.3,26.4,30.34,NW,315,16.0,17.0,62,0.00,,,0.00,meteohub,2013-05-03 02:42:00,
2013-05-02 21:48:00,38.1,26.2,30.35,North,0,17.0,18.0,62,0.00,,,0.00,meteohub,2013-05-03 02:48:00,
2013-05-02 21:53:00,37.9,26.1,30.35,North,0,14.0,18.0,62,0.00,,,0.00,meteohub,2013-05-03 02:53:00,
2013-05-02 21:58:00,37.8,26.2,30.35,North,0,15.0,18.0,63,0.00,,,0.00,meteohub,2013-05-03 02:58:00,
2013-05-02 22:03:00,37.6,26.1,30.35,North,0,15.0,18.0,63,0.00,,,0.00,meteohub,2013-05-03 03:03:00,
2013-05-02 22:08:00,37.4,25.9,30.34,North,0,17.0,17.0,63,0.00,,,0.00,meteohub,2013-05-03 03:08:00,
2013-05-02 22:13:00,37.2,24.3,30.34,North,0,15.0,17.0,59,0.00,,,0.00,meteohub,2013-05-03 03:13:00,
2013-05-02 22:18:00,36.9,24.3,30.35,North,0,15.0,17.0,60,0.00,,,0.00,meteohub,2013-05-03 03:18:00,
2013-05-02 22:23:00,36.3,23.7,30.35,North,0,10.0,17.0,60,0.00,,,0.00,meteohub,2013-05-03 03:23:00,
2013-05-02 22:28:00,35.2,23.2,30.35,North,0,11.0,17.0,61,0.00,,,0.00,meteohub,2013-05-03 03:28:00,
2013-05-02 22:33:00,35.1,23.4,30.35,NE,45,11.0,16.0,62,0.00,,,0.00,meteohub,2013-05-03 03:33:00,
2013-05-02 22:38:00,34.9,23.5,30.35,North,0,10.0,15.0,63,0.00,,,0.00,meteohub,2013-05-03 03:38:00,
2013-05-02 22:43:00,34.7,23.0,30.35,North,0,10.0,13.0,62,0.00,,,0.00,meteohub,2013-05-03 03:43:00,
2013-05-02 22:48:00,34.7,23.0,30.35,North,0,11.0,12.0,62,0.00,,,0.00,meteohub,2013-05-03 03:48:00,
2013-05-02 22:53:00,34.2,22.5,30.35,North,0,10.0,12.0,62,0.00,,,0.00,meteohub,2013-05-03 03:53:00,
2013-05-02 22:58:00,34.3,23.4,30.35,North,0,9.0,12.0,64,0.00,,,0.00,meteohub,2013-05-03 03:58:00,
2013-05-02 23:01:00,34.5,23.5,30.36,North,0,8.0,12.0,64,0.00,,,0.00,meteohub,2013-05-03 04:01:00,
2013-05-02 23:02:00,34.5,23.5,30.35,North,0,10.0,12.0,64,0.00,,,0.00,meteohub,2013-05-03 04:02:00,
2013-05-02 23:03:00,34.5,23.5,30.35,North,0,8.0,12.0,64,0.00,,,0.00,meteohub,2013-05-03 04:03:00,
2013-05-02 23:08:00,34.0,23.5,30.34,North,0,9.0,11.0,65,0.00,,,0.00,meteohub,2013-05-03 04:08:00,
2013-05-02 23:13:00,33.4,23.0,30.34,North,0,11.0,11.0,65,0.00,,,0.00,meteohub,2013-05-03 04:13:00,
2013-05-02 23:19:00,33.3,22.8,30.34,North,0,10.0,12.0,65,0.00,,,0.00,meteohub,2013-05-03 04:19:00,
2013-05-02 23:24:00,33.4,23.0,30.34,North,0,10.0,12.0,65,0.00,,,0.00,meteohub,2013-05-03 04:24:00,
2013-05-02 23:29:00,33.1,22.6,30.34,North,0,11.0,12.0,65,0.00,,,0.00,meteohub,2013-05-03 04:29:00,
2013-05-02 23:34:00,32.9,22.5,30.33,North,0,11.0,11.0,65,0.00,,,0.00,meteohub,2013-05-03 04:34:00,
2013-05-02 23:39:00,32.7,22.3,30.34,NNE,23,11.0,11.0,65,0.00,,,0.00,meteohub,2013-05-03 04:39:00,
2013-05-02 23:44:00,32.7,22.3,30.33,North,0,11.0,11.0,65,0.00,,,0.00,meteohub,2013-05-03 04:44:00,
2013-05-02 23:49:00,32.5,21.7,30.33,North,0,11.0,12.0,64,0.00,,,0.00,meteohub,2013-05-03 04:49:00,
2013-05-02 23:54:00,32.4,21.9,30.33,North,0,8.0,12.0,65,0.00,,,0.00,meteohub,2013-05-03 04:54:00,
2013-05-02 23:59:00,32.2,21.7,30.33,North,0,11.0,12.0,65,0.00,,,0.00,meteohub,2013-05-03 04:59:00,